This is the latest recevied weather packets stored in our database for station/object K1TTC. If no packets are shown the sender has not sent any weather packets the latest 10 day(s).
| Time | Temp. | Humidity | Pressure | Rain* | Wind** | Luminosity | Snow |
|---|---|---|---|---|---|---|---|
| 1787933870 | 27.22° C | 62% | 1017.5 hPa | 0 mm | - | 329 W/m² | - |
| 1787933336 | 26.67° C | 62% | 1017.6 hPa | 0 mm | - | 599 W/m² | - |
| 1787932741 | 26.67° C | 62% | 1017.6 hPa | 0 mm | - | 476 W/m² | - |
| 1787932068 | 26.67° C | 62% | 1017.6 hPa | 0 mm | - | 308 W/m² | - |
| 1787931468 | 26.67° C | 62% | 1017.6 hPa | 0 mm | - | 367 W/m² | - |
| 1787930868 | 26.67° C | 66% | 1017.6 hPa | 0 mm | - | 967 W/m² | - |
| 1787930266 | 25.56° C | 67% | 1017.7 hPa | 0 mm | - | 457 W/m² | - |
| 1787929666 | 25° C | 70% | 1017.8 hPa | 0 mm | - | 520 W/m² | - |
| 1787929068 | 25° C | 70% | 1017.8 hPa | 0 mm | - | 404 W/m² | - |
| 1787928468 | 24.44° C | 73% | 1017.7 hPa | 0 mm | - | 320 W/m² | - |
| 1787927925 | 24.44° C | 76% | 1017.7 hPa | 0 mm | - | 710 W/m² | - |
| 1787927322 | 23.89° C | 79% | 1017.9 hPa | 0 mm | - | 881 W/m² | - |
| 1787926665 | 23.33° C | 81% | 1017.9 hPa | 0 mm | - | 329 W/m² | - |
| 1787926062 | 23.33° C | 82% | 1017.8 hPa | 0 mm | - | 214 W/m² | - |
| 1787925462 | 22.78° C | 84% | 1017.9 hPa | 0 mm | - | 323 W/m² | - |
| 1787924864 | 22.78° C | 85% | 1017.8 hPa | 0 mm | - | 262 W/m² | - |
| 1787924262 | 22.22° C | 85% | 1017.8 hPa | 0 mm | - | 308 W/m² | - |
| 1787923662 | 22.22° C | 85% | 1017.8 hPa | 0 mm | - | 156 W/m² | - |
| 1787923113 | 22.22° C | 85% | 1017.7 hPa | 0 mm | - | 179 W/m² | - |
| 1787922462 | 22.22° C | 85% | 1017.7 hPa | 0 mm | - | 142 W/m² | - |
| 1787921862 | 21.67° C | 85% | 1017.7 hPa | 0 mm | - | 190 W/m² | - |
| 1787921262 | 21.67° C | 85% | 1017.6 hPa | 0 mm | - | 135 W/m² | - |
| 1787920658 | 21.67° C | 85% | 1017.7 hPa | 0 mm | - | 190 W/m² | - |
| 1787920112 | 21.67° C | 85% | 1017.7 hPa | 0 mm | - | 267 W/m² | - |
| 1787919456 | 21.11° C | 84% | 1017.7 hPa | 0 mm | - | 213 W/m² | - |
* Rain latest hour (hover to see other rain measurements)
** Current wind speed in m/s (hover to see current wind gust speed)